Temperature
3 3 3 3 3 3 3 2 2 2 2 2 3 3 3 3 2 2 2 3 3 3 2 2 2 2 2 2 2 2 2 2 2 2 2 2 2 2
3 2 2 2 3 3 2 2 2 1 1 1 2 2 2 2 2 2 2 2 2 2 2 2 2 2 2 2 1 1 1 1 1 1 1 1 1 1
2 2 2 2 2 2 2 2 1 1 1 1 1 1 1 1 1 1 1 2 2 2 2 1 1 1 1 1 1 1 1 1 1 1 1 1 1 1
2 2 2 2 2 2 1 1 1 1 1 1 1 1 1 1 1 1 1 1 1 1 1 1 1 1 1 1 0 0 0 0 0 1 1 1 1 1
1 1 1 1 1 1 1 1 1 0 0 0 0 0 0 0 0 0 0 1 1 1 1 1 0 0 0 0 -0 -0 -0 -0 -0 -0 0 0 0 0
1 1 1 1 1 1 0 0 0 -0 -0 -0 -0 -0 -0 -0 -0 -0 0 0 0 0 0 -0 -0 -0 -0 -0 -0 -1 -1 -1 -1 -1 -0 -0 -0 -0
0 0 0 0 0 0 -0 -0 -0 -0 -1 -1 -1 -1 -1 -1 -1 -1 -1 -1 -1 -1 -0 -0 -1 -1 -1 -1 -1 -1 -1 -1 -1 -1 -1 -1 -1 -0
-0 -0 -0 -0 -0 -0 -0 -1 -1 -1 -1 -1 -1 -1 -1 -1 -1 -1 -1 -1 -1 -1 -1 -1 -1 -1 -1 -1 -1 -1 -1 -2 -2 -2 -1 -1 -1 -1
-1 -1 -1 -1 -1 -1 -1 -1 -1 -1 -1 -1 -2 -2 -2 -1 -2 -2 -2 -2 -2 -2 -2 -2 -2 -2 -2 -2 -2 -2 -2 -2 -2 -2 -2 -2 -2 -1
-1 -1 -2 -1 -1 -1 -1 -1 -1 -1 -2 -2 -2 -2 -2 -2 -2 -2 -2 -3 -2 -2 -3 -3 -2 -2 -2 -2 -2 -2 -2 -2 -2 -2 -2 -2 -2 -2
-2 -2 -2 -2 -2 -2 -2 -2 -2 -2 -2 -2 -2 -2 -2 -3 -3 -3 -3 -3 -3 -3 -3 -3 -3 -3 -3 -2 -2 -3 -3 -3 -2 -2 -2 -2 -2 -2
-2 -2 -2 -2 -2 -2 -2 -2 -2 -2 -2 -2 -2 -3 -3 -3 -3 -3 -3 -3 -4 -3 -3 -3 -3 -4 -4 -3 -3 -3 -3 -3 -3 -3 -2 -2 -2 -2
-2 -2 -2 -3 -3 -3 -3 -3 -3 -3 -3 -3 -3 -3 -3 -3 -3 -3 -3 -4 -4 -4 -4 -4 -4 -4 -4 -4 -3 -3 -3 -3 -3 -3 -3 -3 -3 -3
-3 -3 -3 -3 -3 -3 -3 -3 -3 -3 -3 -3 -3 -3 -3 -3 -3 -3 -4 -4 -4 -4 -4 -4 -4 -4 -5 -5 -4 -3 -3 -4 -3 -3 -3 -3 -3 -3
-3 -3 -4 -4 -4 -4 -4 -4 -4 -4 -4 -4 -4 -4 -4 -4 -4 -4 -4 -4 -4 -4 -4 -4 -4 -4 -4 -4 -4 -4 -4 -4 -4 -4 -3 -3 -4 -4
-4 -4 -4 -4 -4 -4 -4 -4 -4 -4 -4 -4 -4 -4 -4 -4 -4 -4 -4 -4 -4 -4 -4 -4 -4 -4 -4 -4 -4 -4 -4 -4 -4 -4 -4 -4 -4 -4
-4 -4 -4 -4 -4 -4 -4 -4 -4 -4 -4 -4 -4 -4 -4 -4 -4 -4 -4 -4 -4 -4 -4 -4 -4 -4 -4 -4 -4 -4 -4 -4 -4 -4 -4 -4 -4 -4
-4 -4 -5 -5 -5 -5 -5 -5 -5 -5 -5 -5 -5 -5 -5 -5 -5 -5 -5 -5 -5 -5 -5 -5 -5 -5 -4 -4 -4 -5 -5 -5 -5 -5 -5 -5 -4 -4
-5 -5 -5 -5 -5 -5 -5 -5 -5 -5 -5 -5 -5 -5 -5 -5 -5 -5 -5 -5 -5 -5 -5 -5 -5 -5 -5 -5 -5 -5 -5 -5 -5 -5 -5 -5 -5 -4
-5 -5 -5 -5 -5 -5 -6 -5 -5 -5 -5 -5 -5 -5 -5 -5 -5 -5 -5 -5 -5 -5 -5 -5 -5 -5 -5 -6 -5 -5 -5 -5 -5 -5 -5 -5 -5 -5
-5 -5 -5 -5 -6 -6 -6 -6 -6 -6 -6 -6 -6 -6 -5 -5 -5 -5 -5 -5 -5 -5 -5 -5 -5 -5 -5 -6 -6 -5 -5 -5 -5 -5 -5 -5 -5 -5
-5 -6 -6 -6 -6 -6 -6 -6 -6 -6 -6 -6 -6 -6 -6 -6 -6 -5 -6 -5 -5 -5 -5 -5 -5 -5 -5 -6 -5 -5 -5 -5 -5 -5 -5 -5 -6 -6
-6 -6 -6 -6 -6 -6 -6 -6 -6 -6 -6 -6 -6 -6 -6 -6 -6 -6 -6 -6 -6 -5 -5 -5 -5 -5 -6 -6 -6 -6 -5 -5 -5 -5 -5 -5 -5 -5
Wind_Speed
4 4 3 3 2 2 2 3 3 3 4 3 2 2 3 4 6 6 7 9 10 10 10 10 10 11 11 11 12 12 12 13 13 14 15 15 15 15
3 3 3 3 2 2 2 2 3 3 4 2 3 3 4 5 7 7 8 11 10 10 10 10 10 10 10 11 12 12 12 12 13 14 14 15 15 14
3 3 4 3 3 3 2 2 3 3 5 4 2 3 3 4 6 7 8 8 9 10 10 10 10 10 10 11 11 11 11 11 12 13 14 14 14 14
4 4 4 3 3 3 3 3 3 4 4 5 4 3 4 4 4 5 7 7 8 9 10 9 9 9 9 9 9 9 9 10 11 12 12 12 13 13
4 4 4 3 4 3 3 4 3 3 3 4 4 3 3 3 4 4 5 5 7 8 9 9 9 9 9 9 9 9 9 9 10 11 11 12 12 13
3 4 4 4 5 5 4 5 4 4 3 3 4 4 3 3 2 3 4 4 5 6 7 8 9 8 9 9 8 8 8 9 10 11 11 11 12 12
3 3 4 5 6 5 5 4 4 4 4 3 4 4 4 2 3 3 4 4 4 3 3 5 5 5 7 8 8 8 8 9 10 11 12 12 12 12
4 4 4 4 5 7 8 7 6 5 5 4 4 5 5 4 3 3 3 4 4 2 2 4 3 4 5 6 7 8 9 9 10 11 11 12 12 12
4 4 4 3 4 3 4 6 6 7 7 6 5 6 5 4 3 4 4 4 5 4 3 5 3 4 5 7 9 9 9 10 10 10 11 12 12 12
3 4 4 4 3 3 2 2 3 4 5 4 5 6 5 4 4 4 4 4 4 3 2 3 3 4 5 6 8 8 9 10 10 11 11 11 11 11
3 3 3 4 5 5 3 3 3 4 5 6 7 6 7 6 4 2 2 3 4 3 2 2 3 4 4 4 6 7 8 9 11 11 11 11 11 11
2 2 5 5 6 6 4 4 4 4 3 3 3 4 4 4 5 3 3 4 4 3 2 1 2 2 3 3 3 5 6 8 10 10 10 10 11 7
2 2 3 6 6 6 5 4 6 4 3 3 2 2 2 2 3 3 3 4 4 4 3 1 2 2 2 4 4 3 3 5 6 7 8 10 10 8
3 3 3 5 5 5 4 3 4 3 1 2 2 2 3 3 3 3 4 5 5 6 5 4 3 3 3 4 4 3 3 4 4 4 5 8 9 9
3 4 5 5 4 3 3 4 3 2 2 2 3 3 3 3 3 2 3 3 3 4 4 5 3 3 3 4 4 4 3 3 3 3 4 5 4 5
2 3 4 3 2 2 2 2 1 2 2 3 2 3 2 2 2 2 2 2 2 2 3 4 4 4 4 4 4 5 4 3 3 4 4 4 4 5
1 1 0 1 1 1 1 1 1 1 2 2 2 2 2 2 2 2 2 2 2 3 3 2 3 3 4 4 3 4 4 4 4 3 4 4 4 4
1 1 1 1 2 2 2 2 2 2 2 2 2 2 3 3 3 2 2 2 2 3 3 2 2 2 2 2 4 4 3 3 3 3 3 4 5 4
1 1 2 2 2 2 2 2 2 2 2 2 3 3 3 3 2 2 2 2 2 3 3 2 2 2 3 3 3 2 2 3 3 3 3 3 5 6
1 2 2 2 3 3 3 3 3 2 2 2 2 3 3 3 2 3 2 2 3 3 3 2 2 2 3 3 3 3 4 3 3 4 4 4 4 6
2 2 2 2 3 3 3 3 3 3 3 2 3 3 3 3 3 3 2 3 3 2 3 3 3 4 2 1 2 3 3 5 4 4 4 4 4 4
3 3 3 3 3 3 3 3 3 3 3 3 3 3 2 2 3 3 3 3 3 3 3 3 2 2 1 1 3 3 4 5 6 6 5 4 2 3
3 3 3 3 3 3 3 3 3 3 3 3 3 3 2 2 3 3 3 3 2 2 2 2 2 1 1 1 2 3 4 4 4 4 4 6 6 5
Wind_Direction
211 214 224 236 237 233 226 208 207 250 268 254 259 292 312 314 315 317 313 306 304 299 297 297 298 299 302 305 307 308 310 311 313 314 314 314 314 313
213 214 230 233 236 230 225 226 219 227 252 250 249 277 298 307 307 311 307 310 304 298 295 296 296 297 300 303 304 305 310 310 310 311 311 311 311 310
233 225 235 231 232 234 227 228 229 223 248 269 267 281 287 294 309 309 305 304 299 294 296 297 297 299 301 302 304 305 311 312 309 309 309 310 310 311
239 235 241 239 236 236 230 234 233 223 233 261 278 284 280 286 296 300 306 304 298 300 300 300 302 305 305 306 309 310 313 317 317 312 312 313 314 314
243 243 245 237 242 242 234 235 236 240 232 247 271 280 280 291 299 301 303 303 302 304 306 306 307 309 310 310 311 310 312 317 319 317 315 318 317 316
247 247 247 242 241 239 239 237 234 238 235 244 264 276 279 285 284 294 305 304 302 309 313 311 310 313 316 316 314 314 316 318 318 319 319 317 316 316
261 258 255 252 252 249 245 236 227 231 233 244 260 270 274 277 269 272 289 299 298 296 305 309 312 313 312 310 310 310 315 316 316 317 318 319 318 316
264 269 270 268 266 266 259 249 238 231 229 233 248 256 262 255 259 269 283 299 298 298 305 297 299 293 302 298 301 308 315 317 317 317 320 320 319 318
258 264 271 270 272 260 268 269 265 258 246 235 238 247 249 245 245 266 272 274 274 283 296 290 291 287 295 296 299 302 312 318 319 318 318 318 319 318
258 253 253 260 257 241 243 261 264 265 258 248 238 242 243 239 233 244 262 276 278 277 269 276 290 287 293 291 291 300 312 319 321 321 321 322 324 321
258 251 248 246 262 259 239 241 255 264 264 259 257 261 261 262 258 254 263 276 285 275 247 259 285 296 290 280 287 301 310 316 319 320 320 322 326 325
270 260 257 259 265 265 238 231 249 256 254 268 273 283 286 280 270 251 241 252 272 278 248 246 277 314 308 288 285 300 305 307 313 317 321 325 327 331
270 275 270 277 277 274 261 238 248 253 231 231 248 262 275 276 273 265 245 236 248 263 252 248 270 272 269 293 297 290 299 307 313 315 319 323 327 332
257 267 274 284 284 284 278 261 263 261 226 219 240 258 263 266 268 270 260 251 247 252 256 250 251 258 279 290 290 297 306 306 309 310 322 326 328 326
260 273 283 291 296 296 288 284 279 251 223 230 250 260 260 261 267 277 283 286 288 270 257 257 250 255 256 268 278 287 303 303 308 313 319 321 322 327
291 289 300 310 315 311 308 308 295 257 235 237 254 262 265 265 264 270 277 286 293 295 294 282 266 251 264 266 263 278 286 284 303 310 311 310 319 322
264 248 287 305 309 303 302 303 288 276 264 248 251 259 265 268 277 276 269 277 274 285 300 310 313 286 258 255 262 264 276 284 286 300 312 315 313 311
272 232 248 253 262 276 282 279 263 260 259 252 255 257 264 270 281 282 271 263 265 271 278 289 308 324 321 289 240 253 273 281 294 301 302 304 307 308
269 254 255 259 266 272 270 264 263 261 254 246 254 256 259 263 266 272 272 270 267 270 277 277 282 294 306 306 304 271 266 292 300 301 294 291 295 302
271 264 264 264 264 266 268 265 261 259 254 249 254 256 253 256 260 261 258 261 267 279 286 284 266 260 264 274 285 297 295 275 281 290 296 298 291 300
279 267 261 262 265 264 266 265 263 257 253 248 251 255 254 252 257 259 258 264 266 266 274 279 276 296 287 285 292 296 300 301 288 283 295 301 304 310
287 279 270 262 260 260 262 261 259 256 251 246 250 256 254 252 255 255 252 257 256 257 268 280 292 303 282 259 280 289 303 314 320 317 309 296 286 289
280 279 273 265 263 263 260 257 256 255 252 249 250 253 251 254 255 252 250 252 254 259 273 287 302 308 293 267 275 289 299 310 320 329 325 330 317 302
Height
1487 1488 1489 1490 1490 1490 1490 1490 1491 1489 1487 1487 1488 1487 1487 1486 1485 1483 1482 1480 1479 1478 1476 1475 1474 1472 1471 1470 1468 1467 1465 1463 1462 1460 1458 1457 1456 1454
1483 1484 1485 1485 1485 1486 1486 1486 1486 1486 1484 1483 1483 1483 1483 1482 1480 1479 1478 1476 1475 1473 1472 1470 1469 1468 1466 1465 1464 1462 1460 1459 1457 1456 1454 1453 1451 1450
1479 1480 1480 1480 1481 1481 1482 1482 1482 1482 1480 1479 1479 1479 1478 1477 1476 1475 1473 1472 1470 1469 1467 1466 1465 1463 1462 1461 1459 1458 1456 1454 1453 1451 1450 1448 1447 1445
1476 1476 1475 1476 1476 1477 1477 1478 1478 1478 1477 1475 1475 1474 1474 1473 1471 1470 1469 1467 1466 1465 1463 1462 1460 1459 1457 1456 1455 1453 1451 1450 1448 1447 1445 1444 1442 1441
1472 1472 1471 1472 1472 1472 1473 1473 1473 1473 1473 1472 1470 1470 1469 1468 1467 1466 1465 1463 1462 1461 1459 1458 1456 1454 1452 1451 1450 1448 1447 1445 1444 1442 1441 1439 1438 1436
1468 1468 1467 1468 1468 1468 1468 1469 1469 1469 1468 1468 1466 1466 1465 1464 1463 1462 1460 1459 1458 1457 1455 1454 1452 1450 1448 1447 1446 1444 1443 1441 1440 1438 1437 1435 1434 1432
1465 1464 1464 1464 1464 1464 1464 1464 1464 1464 1464 1463 1462 1462 1461 1460 1459 1458 1456 1455 1453 1453 1451 1450 1448 1446 1445 1443 1442 1440 1439 1437 1436 1434 1433 1431 1429 1427
1461 1460 1460 1459 1459 1460 1460 1460 1460 1460 1459 1459 1458 1458 1457 1457 1456 1454 1453 1451 1449 1449 1447 1445 1444 1442 1441 1439 1438 1437 1435 1434 1432 1431 1429 1427 1425 1423
1457 1456 1456 1455 1455 1455 1455 1455 1455 1455 1456 1455 1454 1453 1453 1453 1452 1451 1450 1448 1446 1445 1444 1441 1440 1438 1437 1436 1434 1433 1432 1430 1429 1427 1425 1423 1421 1419
1453 1452 1452 1451 1452 1451 1451 1451 1450 1451 1451 1451 1450 1450 1449 1449 1448 1448 1446 1444 1443 1442 1441 1438 1436 1435 1433 1432 1431 1430 1428 1427 1425 1423 1422 1420 1418 1416
1449 1449 1448 1448 1448 1448 1447 1447 1446 1446 1447 1447 1446 1446 1445 1445 1445 1444 1443 1441 1439 1438 1438 1435 1433 1431 1429 1428 1428 1426 1425 1423 1422 1420 1418 1416 1414 1412
1446 1445 1445 1445 1444 1444 1444 1443 1443 1442 1443 1442 1442 1442 1441 1441 1441 1440 1439 1438 1436 1435 1434 1432 1430 1429 1426 1425 1424 1423 1421 1420 1418 1417 1415 1413 1411 1409
1442 1442 1442 1441 1441 1440 1440 1440 1439 1439 1439 1439 1438 1438 1437 1437 1437 1436 1435 1435 1433 1431 1431 1430 1428 1426 1425 1422 1420 1419 1418 1416 1415 1413 1412 1410 1408 1406
1439 1438 1438 1438 1437 1437 1436 1436 1436 1436 1436 1435 1435 1434 1434 1433 1433 1432 1432 1431 1430 1429 1428 1427 1425 1424 1422 1419 1418 1416 1416 1414 1412 1411 1409 1407 1406 1404
1436 1435 1435 1434 1434 1433 1433 1433 1433 1432 1432 1431 1431 1430 1430 1430 1430 1429 1428 1427 1426 1426 1425 1424 1422 1421 1420 1418 1416 1414 1413 1411 1410 1408 1407 1405 1403 1401
1432 1432 1431 1431 1430 1430 1430 1429 1429 1429 1428 1428 1428 1427 1427 1427 1426 1426 1425 1424 1423 1422 1422 1421 1419 1418 1417 1415 1414 1412 1411 1410 1408 1406 1405 1403 1401 1400
1429 1428 1428 1428 1427 1427 1426 1426 1426 1426 1425 1425 1425 1424 1424 1424 1423 1423 1422 1421 1420 1419 1418 1418 1417 1416 1414 1413 1411 1410 1409 1408 1406 1404 1402 1400 1399 1398
1427 1426 1425 1425 1424 1424 1423 1423 1422 1422 1422 1422 1422 1422 1421 1421 1420 1420 1419 1418 1418 1417 1416 1415 1414 1413 1412 1410 1410 1408 1407 1405 1404 1403 1401 1399 1396 1396
1424 1423 1423 1422 1422 1421 1420 1420 1419 1419 1419 1419 1419 1419 1418 1418 1417 1417 1416 1416 1415 1414 1414 1413 1412 1410 1409 1408 1407 1407 1405 1403 1402 1400 1399 1397 1395 1393
1421 1421 1420 1419 1419 1418 1418 1417 1417 1417 1416 1416 1416 1416 1416 1415 1415 1414 1414 1414 1413 1412 1412 1411 1410 1409 1408 1407 1405 1404 1404 1402 1400 1398 1397 1395 1393 1392
1419 1418 1417 1417 1416 1415 1415 1414 1414 1414 1414 1413 1413 1413 1413 1413 1412 1412 1412 1411 1411 1410 1409 1409 1408 1408 1406 1405 1404 1402 1401 1401 1399 1397 1395 1393 1391 1389
1416 1415 1414 1414 1413 1412 1412 1411 1411 1411 1411 1411 1411 1411 1410 1410 1410 1410 1409 1409 1408 1408 1407 1407 1406 1405 1405 1403 1401 1400 1399 1398 1397 1396 1395 1393 1391 1388
1413 1412 1411 1411 1410 1409 1409 1408 1408 1408 1408 1408 1408 1408 1408 1408 1407 1407 1407 1406 1406 1406 1405 1404 1404 1403 1402 1401 1400 1398 1397 1396 1395 1394 1393 1391 1390 1388